#timestamp,LO_Frequency,Hit,StdDev 
1566183615.0,286047002.4,N
1566183615.9,286047002.4,N
1566183635.8,286047001.7,N
1566183655.6,286047001.3,N
1566183675.5,286047004.2,N
1566183695.3,286047001.8,N
1566183715.1,286047001.1,N
1566183735.9,286047000.5,N
1566183755.7,286046999.7,N
1566183775.6,286047002.4,N
1566183795.4,286047002.2,N
1566183815.2,286047001.5,N
1566183835.1,286047001.7,N
1566183836.0,286047001.7,N
1566183855.8,286047001.5,N
1566183875.6,286047003.7,N
1566183895.5,286047001.3,N
1566183915.3,286047001.7,N
1566183935.2,286047004.3,N
1566183955.9,286047001.7,N
1566183975.7,286047001.7,N
1566183995.6,286047004.4,N
1566184015.4,286047001.3,N
1566184035.2,286047004.1,N
1566184055.1,286047004.0,N
1566184056.0,286047004.0,N
1566184075.8,286047002.0,N
1566184095.7,286046999.7,N
1566184115.5,286047000.3,N
1566184135.3,286046999.7,N
1566184155.2,286047002.6,N
1566184175.0,286047002.7,N
1566184175.9,286047002.7,N
1566184195.8,286046999.7,N
1566184215.6,286047002.1,N
1566184235.4,286047002.7,N
1566184255.3,286047000.1,N
1566184275.1,286047000.9,N
1566184295.9,286047000.2,N
1566184315.7,286047000.4,N
1566184335.5,286046998.2,N
1566184355.4,286047000.8,N
1566184375.2,286047000.8,N
1566184395.0,286046998.7,N
1566184396.0,286046998.7,N
1566184415.8,286046998.1,N
1566184435.6,286047001.2,N
1566184455.5,286047000.9,N
1566184475.3,286046998.2,N
1566184495.1,286046999.0,N
1566184515.9,286046996.5,N
1566184535.7,286046996.5,N
1566184555.6,286046996.6,N
1566184575.4,286046996.7,N
1566184595.2,286046999.6,N
1566184615.1,286046996.6,N
1566184616.0,286046996.6,N
1566184635.8,286046997.1,N
1566184655.7,286046996.5,N
1566184675.5,286046996.8,N
1566184695.3,286046997.7,N
1566184715.2,286046996.8,N
1566184735.0,286046997.1,N
1566184735.9,286046997.1,N
1566184755.7,286046999.6,N
1566184775.6,286046999.6,N
1566184795.4,286046997.2,N
1566184815.3,286046995.5,N
1566184835.1,286046998.0,N
1566184855.8,286046995.3,N
1566184875.7,286046995.5,N
1566184895.5,286046995.2,N
1566184915.4,286046995.7,N
1566184935.2,286046994.0,Y
1566184955.0,286046998.0,P
1566184955.9,286046998.0,P
1566184975.8,286046999.2,P
1566184995.6,286047000.7,N
1566185015.5,286046999.4,N
1566185035.3,286046997.6,N
1566185055.1,286046997.2,N
1566185075.9,286046998.3,N
1566185095.7,286046999.3,N
1566185115.5,286046996.8,Y
1566185135.4,286046998.3,P
1566185155.2,286047002.8,P
1566185175.1,286047002.7,N
1566185176.0,286047002.7,N
1566185195.8,286047001.9,N
1566185215.6,286047004.3,N
1566185235.5,286047001.3,N
1566185255.3,286047002.7,N
1566185275.2,286047001.7,N
1566185295.9,286047003.7,N
1566185315.7,286047003.9,N
1566185335.6,286047002.5,N
1566185355.4,286047000.1,N
1566185375.2,286047004.0,N
1566185395.1,286047004.1,N
1566185396.0,286047004.1,N
1566185415.8,286047001.3,N
1566185435.7,286047002.4,N
1566185455.5,286047000.8,N
1566185475.3,286047001.0,N
1566185495.2,286046998.1,N
1566185515.0,286047000.0,N
1566185515.9,286047000.0,N
1566185535.8,286047000.7,N
1566185555.6,286047001.0,N
1566185575.4,286047002.4,N
1566185595.3,286047002.6,N
1566185615.1,286047002.9,N
1566185635.9,286047003.1,N
1566185655.7,286047004.2,N
1566185675.5,286047003.6,N
1566185695.4,286047002.0,N
1566185715.2,286047001.8,N
1566185735.0,286047001.5,N
1566185735.9,286047001.5,N
1566185755.8,286047004.2,N
1566185775.6,286047001.6,N
1566185795.5,286047001.6,N
1566185815.3,286046999.7,N
1566185835.1,286047004.3,N
1566185855.9,286047002.9,N
1566185875.7,286047001.9,N
1566185895.5,286047002.1,N
1566185915.4,286047004.3,N
1566185935.2,286047003.6,N
1566185955.1,286047004.0,N
1566185956.0,286047004.0,N
1566185975.8,286047003.9,N
1566185995.7,286047005.9,Y
1566186015.5,286047003.8,P
1566186035.3,286047002.4,N
1566186055.2,286047000.4,N
1566186075.9,286047000.9,N
1566186095.7,286047002.3,N
1566186115.6,286047002.0,N
1566186135.4,286047001.6,N
1566186155.3,286047001.5,N
1566186175.1,286047004.3,Y
1566186176.0,286047004.3,P
1566186195.8,286047001.8,N
1566186215.7,286047000.7,N
1566186235.5,286046998.7,N
1566186255.4,286046998.9,N
1566186275.2,286046999.3,N
1566186295.0,286046999.1,N
1566186295.9,286046999.1,N
1566186315.8,286046998.1,N
1566186335.6,286047000.4,N
1566186355.5,286047000.3,N
1566186375.3,286047000.1,N
1566186395.1,286047000.8,N
1566186415.9,286047000.7,N
1566186435.7,286047000.3,N
1566186455.5,286047001.0,N
1566186475.4,286046997.1,N
1566186495.2,286046999.5,N
1566186515.1,286046999.0,N
1566186516.0,286046999.0,N
1566186535.8,286047000.8,N
1566186555.6,286047001.2,N
1566186575.5,286046998.1,N
1566186595.3,286047001.0,N
1566186615.1,286047000.0,N
1566186635.9,286047000.6,N
1566186655.7,286047000.9,N
1566186675.6,286047000.2,N
1566186695.4,286046998.4,N
1566186715.2,286046999.0,N
1566186735.1,286047000.3,N
1566186736.0,286047000.3,N
1566186755.8,286047002.6,N
1566186775.7,286047000.6,N
1566186795.5,286046998.8,N
1566186815.3,286046998.3,N
1566186835.2,286047000.4,N
1566186855.0,286047000.5,N
1566186855.9,286047000.5,N
1566186875.8,286047002.4,N
1566186895.6,286047002.2,N
1566186915.4,286047002.6,N
1566186935.3,286047002.4,N
1566186955.1,286047001.7,N
1566186975.8,286047002.1,N
1566186995.7,286047001.9,N
1566187015.5,286047002.4,N
1566187035.4,286047002.4,N
1566187055.2,286047002.7,N
1566187075.0,286047002.7,N
1566187075.9,286047002.7,N
1566187095.8,286047001.0,N
1566187115.6,286047002.0,N
1566187135.5,286047002.8,N
1566187155.3,286047002.4,N
1566187175.1,286047001.0,N
1566187195.9,286047002.4,N
